Back to catalog

THOR 2A

AliveCommunicationsGEO
NORAD 24808·PAYLOAD·🇳🇴 Norway

Launched May 20, 1997 from Cape Canaveral Space Force Station

Loading…

TLE

FreshSource: Space-Track

Epoch: Sep 14, 2026, 12:13 UTC

1 24808U 97025A   26257.50970197 -.00000042  00000-0  00000-0 0  9992
2 24808  12.1751  31.9703 0002675 296.4828 237.8268  0.98972233 46967

Track THOR 2A in real time with AllMySat

Download on the App Store